Location: downtown San Diego
(32.7310°N, 117.1990°W)
Time: 15:38:24
(UTC-07:00)

OAO 3 Copernicus - Pass Details

Date: 14 June 2018
Orbit: 696 x 704 km, 35.0° (Epoch: 17 October)

Event Time Altitude Azimuth Distance (km) Brightness Sun altitude
Rises 20:32:56 0° 239° (WSW) 3,069 8.0 -7.1°
Reaches altitude 10° 20:35:23 10° 236° (SW) 2,151 7.1 -7.5°
Maximum altitude 20:40:19 57° 158° (SSE) 817 4.4 -8.4°
Drops below altitude 10° 20:45:15 10° 80° (E) 2,150 6.4 -9.2°
Sets 20:47:41 0° 76° (ENE) 3,068 7.2 -9.7°
Enters shadow 20:47:45 - 76° (ENE) 3,088 7.3 -9.7°
